Location: Unspecified
(0.0000°N, 0.0000°E)
Time: 01:44:36
(UTC+00:00)

Tiangong 2 - Pass Details

Date: 13 January 2017
Orbit: 369 x 377 km, 42.8° (Epoch: 21 February)

Event Time Altitude Azimuth Distance (km) Brightness Sun altitude
Rises 18:27:52 0° 286° (WNW) 2,211 5.9 -4.4°
Reaches altitude 10° 18:30:35 10° 260° (W) 1,362 5.6 -5.0°
Maximum altitude 18:32:21 14° 225° (SW) 1,136 4.6 -5.5°
Drops below altitude 10° 18:34:07 10° 189° (S) 1,361 4.3 -5.9°
Sets 18:36:50 0° 163° (SSE) 2,209 5.0 -6.5°
